Regional Weather Roundup
Issued by NWS

Home | Current Version | Previous Version | Graphics & Text | Print | Product List | Glossary Off
Versions: 1 2 3 4 5 6 7 8 9 10 11 12 13 14 15 16 17 18 19 20 21 22 23 24 25 26 27 28

000
ASUS45 KCYS 260910
RWRWY

WYOMING REGIONAL WEATHER ROUNDUP
NATIONAL WEATHER SERVICE CHEYENNE WY
300 AM MDT WED APR 26 2017

NOTE:  "FAIR" INDICATES FEW OR NO CLOUDS BELOW 12,000 FEET
WITH NO SIGNIFICANT WEATHER AND/OR OBSTRUCTIONS TO VISIBILITY.

WYZ001-261000-
YELLOWSTONE NATIONAL PARK

CITY           SKY/WX    TMP DP  RH WIND       PRES   REMARKS
LK YELLOWSTONE   N/A     28  27  96 VRB3      29.83F
W YELLOWSTONE  NOT AVBL

$$
WYZ002>013-054>058-071-098>099-261000-
NORTHERN WYOMING

CITY           SKY/WX    TMP DP  RH WIND       PRES   REMARKS
JACKSON        FAIR      34  27  75 S12       29.84F WCI  25
CODY           MOCLDY    31  30  96 CALM      29.80F
GREYBULL       CLOUDY    35  29  78 SE6       29.81F WCI  30
WORLAND        FAIR      31  31 100 S6        29.81F WCI  25
SHERIDAN       CLOUDY    31  27  85 SE6       29.82F WCI  25
BUFFALO        NOT AVBL
GILLETTE       CLOUDY    27  27 100 CALM      29.85F
HULETT         CLOUDY    27  23  86 CALM      29.86F
NEWCASTLE      FAIR      23  21  93 NW8       29.85F WCI  14

$$
WYZ014>020-022>026-101>103-261000-
CENTRAL WYOMING

CITY           SKY/WX    TMP DP  RH WIND       PRES   REMARKS
BIG PINEY      FAIR      33  28  81 NW5       29.88F WCI  29
PINEDALE       CLOUDY    32  30  93 NW5       29.88F WCI  27
DUBOIS         FLURRIES  30  28  93 NW9       29.82F WCI  22
LANDER         FAIR      34  23  64 NW5       29.82F WCI  30
RIVERTON       FOG       28  27  96 NW8       29.83F VSB 3/4 WCI  20
CASPER         FAIR      25  23  92 SE3       29.83F
DOUGLAS        FAIR      25  23  92 W7        29.84F WCI  17

$$
WYZ021-027>030-104>119-261000-
SOUTHERN WYOMING

CITY           SKY/WX    TMP DP  RH WIND       PRES   REMARKS
EVANSTON       MOCLDY    31  28  89 SW12      29.92F WCI  22
KEMMERER         N/A     30  28  93 SW6       29.91F WCI  24
FORT BRIDGER   FAIR      33  30  87 SW12      29.95S WCI  25
ROCK SPRINGS   CLOUDY    34  31  88 SW13      29.88F WCI  25
DIXON            N/A     28  27  94 CALM      29.93S
RAWLINS        FAIR      27  24  89 W5        29.87S WCI  22
SARATOGA       CLOUDY    28  28 100 CALM      29.89R
LARAMIE        MOCLDY    28  23  81 N10       29.82S WCI  19
CHEYENNE       CLOUDY    30  24  78 NW13      29.79F WCI  20
TORRINGTON     MOCLDY    32  26  78 N7        29.82F WCI  26
PINE BLUFFS    CLOUDY    32  28  86 N14       29.81S WCI  22

$$




USA.gov is the U.S. government's official web portal to all federal, state and local government web resources and services.